Location: Kalberh�ni
(46.4610°N, 7.2453°E)
Time: 08:48:55
(UTC+00:00)

Cosmos 1455 - Pass Details

Date: 31 October 2021
Orbit: 496 x 520 km, 82.5° (Epoch: 27 November)

Event Time Altitude Azimuth Distance (km) Brightness Sun altitude
Rises 17:19:52 0° 172° (S) 2,609 5.8 -11.2°
Reaches altitude 10° 17:22:03 10° 166° (SSE) 1,724 4.8 -11.6°
Maximum altitude 17:25:39 43° 94° (E) 719 2.4 -12.2°
Drops below altitude 10° 17:29:14 10° 22° (NNE) 1,725 4.6 -12.8°
Sets 17:31:25 0° 16° (NNE) 2,611 5.5 -13.2°
